When you browse on this site, cookies collect data to enhance your experience and personalize the content and advertising you see.
Visit our Privacy Policy to learn more. By continuing to use the site, you agree to this use of cookies and data.
  • En España
  • Lista de países
  • Para 7 días
  • Temperatura del agua
  • Mapa Satelital
  • El tiempo en el mapa
  • Informadores
  • user-avatar
    Iniciar sesión

    Tiempo cada hora Tirana

    Hoy, 12 Diciembre, Miércoles

    Tiempo Temperatura Precipitaciones Viento Presión Humedad
    00:00 +2°C° 0 mm 3 mps 756 mmHg 61%
    01:00 +3°C° 0 mm 2 mps 755 mmHg 59%
    02:00 +3°C° 0 mm 2 mps 756 mmHg 59%
    03:00 +3°C° 0 mm 2 mps 756 mmHg 58%
    04:00 +3°C° 0 mm 2 mps 756 mmHg 57%
    05:00 +3°C° 0 mm 2 mps 756 mmHg 56%
    06:00 +3°C° 0 mm 2 mps 756 mmHg 55%
    07:00 +2°C° 0 mm 3 mps 756 mmHg 54%
    08:00 +3°C° 0 mm 3 mps 756 mmHg 48%
    09:00 +6°C° 0 mm 2 mps 757 mmHg 42%
    10:00 +7°C° 0 mm 2 mps 757 mmHg 35%
    11:00 +8°C° 0 mm 2 mps 757 mmHg 32%
    12:00 +8°C° 0 mm 2 mps 756 mmHg 29%
    13:00 +10°C° 0 mm 1 mps 756 mmHg 27%
    14:00 +9°C° 0 mm 1 mps 756 mmHg 31%
    15:00 +8°C° 0 mm 1 mps 757 mmHg 36%
    16:00 +7°C° 0 mm 1 mps 757 mmHg 40%
    17:00 +5°C° 0 mm 2 mps 757 mmHg 40%
    18:00 +4°C° 0 mm 2 mps 757 mmHg 40%
    19:00 +4°C° 0 mm 2 mps 757 mmHg 41%
    20:00 +3°C° 0 mm 3 mps 757 mmHg 40%
    21:00 +3°C° 0 mm 3 mps 757 mmHg 39%
    22:00 +2°C° 0 mm 3 mps 757 mmHg 39%
    23:00 +3°C° 0 mm 3 mps 757 mmHg 38%

    Mañana, 13 Diciembre, Jueves

    Tiempo Temperatura Precipitaciones Viento Presión Humedad
    00:00 +3°C° 0 mm 3 mps 757 mmHg 37%
    01:00 +3°C° 0 mm 3 mps 757 mmHg 37%
    02:00 +3°C° 0 mm 4 mps 757 mmHg 36%
    03:00 +3°C° 0 mm 4 mps 756 mmHg 36%
    04:00 +3°C° 0 mm 4 mps 756 mmHg 36%
    05:00 +4°C° 0 mm 4 mps 756 mmHg 36%
    06:00 +4°C° 0 mm 4 mps 756 mmHg 36%
    07:00 +4°C° 0 mm 4 mps 755 mmHg 36%
    08:00 +5°C° 0 mm 4 mps 755 mmHg 37%
    09:00 +6°C° 0 mm 4 mps 755 mmHg 38%
    10:00 +7°C° 0 mm 4 mps 755 mmHg 39%
    11:00 +7°C° 0 mm 4 mps 755 mmHg 42%
    12:00 +7°C° 0 mm 4 mps 754 mmHg 45%
    13:00 +8°C° 0 mm 4 mps 754 mmHg 48%
    14:00 +7°C° 0 mm 4 mps 753 mmHg 53%
    15:00 +7°C° 0 mm 4 mps 753 mmHg 58%
    16:00 +6°C° 0 mm 5 mps 753 mmHg 63%
    17:00 +5°C° 0.1 mm 5 mps 753 mmHg 66%
    18:00 +5°C° 0.1 mm 5 mps 753 mmHg 69%
    19:00 +3°C° 0.1 mm 5 mps 753 mmHg 72%
    20:00 +5°C° 0.3 mm 5 mps 753 mmHg 72%
    21:00 +5°C° 0.3 mm 5 mps 753 mmHg 73%
    22:00 +4°C° 0.3 mm 6 mps 753 mmHg 74%
    23:00 +5°C° 0.4 mm 5 mps 753 mmHg 75%

    Pasado mañana, 14 Diciembre, Viernes

    Tiempo Temperatura Precipitaciones Viento Presión Humedad
    00:00 +5°C° 0.4 mm 5 mps 753 mmHg 77%
    01:00 +5°C° 0.4 mm 5 mps 753 mmHg 78%
    02:00 +6°C° 0.2 mm 5 mps 752 mmHg 79%
    03:00 +6°C° 0.2 mm 4 mps 752 mmHg 80%
    04:00 +6°C° 0.2 mm 4 mps 752 mmHg 81%
    05:00 +6°C° 0.3 mm 4 mps 752 mmHg 82%
    06:00 +6°C° 0.3 mm 4 mps 752 mmHg 82%
    07:00 +7°C° 0.3 mm 5 mps 752 mmHg 83%
    08:00 +8°C° 0.2 mm 5 mps 752 mmHg 82%
    09:00 +9°C° 0.2 mm 5 mps 752 mmHg 80%
    10:00 +10°C° 0.2 mm 5 mps 752 mmHg 79%
    11:00 +12°C° 0.2 mm 5 mps 752 mmHg 76%
    12:00 +13°C° 0.2 mm 5 mps 752 mmHg 73%
    13:00 +14°C° 0.2 mm 6 mps 751 mmHg 71%
    14:00 +13°C° 0.5 mm 6 mps 751 mmHg 74%
    15:00 +13°C° 0.5 mm 6 mps 751 mmHg 77%
    16:00 +11°C° 0.5 mm 6 mps 751 mmHg 80%
    17:00 +10°C° 0.6 mm 6 mps 751 mmHg 81%
    18:00 +9°C° 0.6 mm 6 mps 752 mmHg 81%
    19:00 +9°C° 0.6 mm 6 mps 752 mmHg 82%
    20:00 +9°C° 0.5 mm 6 mps 752 mmHg 81%
    21:00 +8°C° 0.5 mm 6 mps 752 mmHg 81%
    22:00 +8°C° 0.5 mm 6 mps 752 mmHg 80%
    23:00 +8°C° 0.2 mm 5 mps 752 mmHg 80%

    15 Diciembre, Sábado

    Tiempo Temperatura Precipitaciones Viento Presión Humedad
    00:00 +8°C° 0.2 mm 5 mps 752 mmHg 80%
    01:00 +8°C° 0.2 mm 5 mps 752 mmHg 80%
    02:00 +8°C° 0.1 mm 5 mps 751 mmHg 79%
    03:00 +8°C° 0.1 mm 5 mps 751 mmHg 79%
    04:00 +8°C° 0.1 mm 5 mps 751 mmHg 79%
    05:00 +8°C° 0.2 mm 5 mps 751 mmHg 79%
    06:00 +8°C° 0.2 mm 5 mps 751 mmHg 79%
    07:00 +8°C° 0.2 mm 5 mps 751 mmHg 79%
    08:00 +9°C° 0.4 mm 5 mps 751 mmHg 77%
    09:00 +10°C° 0.4 mm 5 mps 751 mmHg 75%
    10:00 +12°C° 0.4 mm 5 mps 751 mmHg 73%
    11:00 +12°C° 1.1 mm 5 mps 751 mmHg 74%
    12:00 +11°C° 1.1 mm 6 mps 751 mmHg 75%
    13:00 +13°C° 1.1 mm 6 mps 750 mmHg 75%
    14:00 +12°C° 1.5 mm 5 mps 750 mmHg 77%
    15:00 +12°C° 1.5 mm 5 mps 750 mmHg 79%
    16:00 +10°C° 1.5 mm 5 mps 750 mmHg 81%
    17:00 +10°C° 2.1 mm 5 mps 750 mmHg 82%
    18:00 +10°C° 2.1 mm 5 mps 750 mmHg 83%
    19:00 +10°C° 2.1 mm 4 mps 751 mmHg 84%
    20:00 +10°C° 2 mm 4 mps 751 mmHg 87%
    21:00 +10°C° 2 mm 4 mps 751 mmHg 89%
    22:00 +10°C° 2 mm 4 mps 751 mmHg 92%
    23:00 +10°C° 1.7 mm 4 mps 751 mmHg 93%

    16 Diciembre, Domingo

    Tiempo Temperatura Precipitaciones Viento Presión Humedad
    00:00 +9°C° 1.7 mm 5 mps 751 mmHg 94%
    01:00 +8°C° 1.7 mm 5 mps 751 mmHg 95%
    02:00 +8°C° 0.9 mm 4 mps 751 mmHg 95%
    03:00 +8°C° 0.9 mm 4 mps 751 mmHg 95%
    04:00 +9°C° 0.9 mm 3 mps 751 mmHg 95%
    05:00 +8°C° 0.2 mm 4 mps 752 mmHg 95%
    06:00 +8°C° 0.2 mm 4 mps 752 mmHg 94%
    07:00 +8°C° 0.2 mm 4 mps 752 mmHg 93%
    08:00 +8°C° 0.2 mm 4 mps 752 mmHg 91%
    09:00 +8°C° 0.2 mm 4 mps 753 mmHg 89%
    10:00 +9°C° 0.2 mm 3 mps 753 mmHg 87%
    11:00 +10°C° 0.1 mm 4 mps 753 mmHg 84%
    12:00 +10°C° 0.1 mm 4 mps 753 mmHg 81%
    13:00 +11°C° 0.1 mm 4 mps 753 mmHg 79%
    14:00 +10°C° 0 mm 4 mps 753 mmHg 80%
    15:00 +10°C° 0 mm 4 mps 753 mmHg 82%
    16:00 +8°C° 0 mm 4 mps 754 mmHg 84%
    17:00 +8°C° 0 mm 3 mps 754 mmHg 85%
    18:00 +8°C° 0 mm 3 mps 755 mmHg 85%
    19:00 +7°C° 0 mm 3 mps 755 mmHg 86%
    20:00 +7°C° 0 mm 3 mps 756 mmHg 86%
    21:00 +7°C° 0 mm 2 mps 756 mmHg 86%
    22:00 +6°C° 0 mm 2 mps 756 mmHg 86%
    23:00 +6°C° 0 mm 2 mps 756 mmHg 86%

    17 Diciembre, Lunes

    Tiempo Temperatura Precipitaciones Viento Presión Humedad
    00:00 +6°C° 0 mm 2 mps 756 mmHg 86%
    01:00 +6°C° 0 mm 2 mps 756 mmHg 86%
    02:00 +6°C° 0 mm 2 mps 756 mmHg 84%
    03:00 +6°C° 0 mm 2 mps 756 mmHg 82%
    04:00 +7°C° 0 mm 1 mps 756 mmHg 81%
    05:00 +7°C° 0 mm 2 mps 756 mmHg 78%
    06:00 +7°C° 0 mm 2 mps 756 mmHg 76%
    07:00 +7°C° 0 mm 2 mps 756 mmHg 74%
    08:00 +8°C° 0 mm 2 mps 756 mmHg 66%
    09:00 +10°C° 0 mm 1 mps 756 mmHg 59%
    10:00 +11°C° 0 mm 1 mps 757 mmHg 52%
    11:00 +12°C° 0 mm 1 mps 756 mmHg 50%
    12:00 +12°C° 0 mm 1 mps 756 mmHg 49%
    13:00 +13°C° 0 mm 1 mps 755 mmHg 47%
    14:00 +12°C° 0 mm 1 mps 755 mmHg 52%
    15:00 +11°C° 0 mm 1 mps 755 mmHg 57%
    16:00 +10°C° 0 mm 1 mps 755 mmHg 62%
    17:00 +9°C° 0 mm 2 mps 755 mmHg 63%
    18:00 +9°C° 0 mm 2 mps 755 mmHg 63%
    19:00 +9°C° 0 mm 2 mps 755 mmHg 63%
    20:00 +9°C° 0.2 mm 3 mps 755 mmHg 64%
    21:00 +9°C° 0.2 mm 3 mps 755 mmHg 65%
    22:00 +8°C° 0.2 mm 4 mps 755 mmHg 65%
    23:00 +8°C° 0.7 mm 4 mps 754 mmHg 68%
    Mostrar más